TAM9412 SBKP-SBSP

Flight info

Callsign TAM9412
Flight time 0h 36m
Altitude 23999
Route KONVI1A KONVI DCT ENTIT DOSPI1A
Aircraft A20N/M-SDE2E3FGHIRWXY/LB1

Departure

Time 2026-05-09 04:50
Airport Viracopos International Airport (SBKP)

Arrival

Time 2026-05-09 05:26
Airport Congonhas–Deputado Freitas Nobre Airport (SBSP)
Time Latitude Longitude Altitude Speed Heading
2026-05-09 03:53 -23.00197 -47.14908 2174 ft 0 kts 37°
2026-05-09 04:24 -23.00202 -47.14912 2177 ft 2 kts 37°
2026-05-09 04:24 -23.00212 -47.14920 2177 ft 0 kts 37°
2026-05-09 04:24 -23.00223 -47.14927 2177 ft 2 kts 11°
2026-05-09 04:25 -23.00238 -47.14926 2177 ft 2 kts 343°
2026-05-09 04:25 -23.00251 -47.14919 2177 ft 1 kts 314°
2026-05-09 04:25 -23.00255 -47.14914 2177 ft 1 kts 305°
2026-05-09 04:25 -23.00257 -47.14911 2177 ft 0 kts 308°
2026-05-09 04:31 -23.00252 -47.14918 2177 ft 2 kts 308°
2026-05-09 04:31 -23.00239 -47.14936 2177 ft 0 kts 308°
2026-05-09 04:32 -23.00233 -47.14944 2177 ft 2 kts 308°
2026-05-09 04:32 -23.00212 -47.14971 2177 ft 6 kts 313°
2026-05-09 04:33 -23.00210 -47.14973 2177 ft 6 kts 313°
2026-05-09 04:33 -23.00184 -47.14990 2177 ft 6 kts 353°
2026-05-09 04:34 -23.00140 -47.14968 2177 ft 7 kts 37°
2026-05-09 04:34 -23.00095 -47.14932 2177 ft 8 kts 37°
2026-05-09 04:34 -23.00044 -47.14890 2177 ft 9 kts 38°
2026-05-09 04:34 -23.00003 -47.14832 2177 ft 9 kts 50°
2026-05-09 04:35 -22.99971 -47.14802 2177 ft 4 kts 38°
2026-05-09 04:35 -22.99950 -47.14785 2177 ft 0 kts 37°
2026-05-09 04:48 -22.99949 -47.14784 2177 ft 1 kts 37°
2026-05-09 04:48 -22.99907 -47.14737 2177 ft 11 kts 53°
2026-05-09 04:49 -22.99876 -47.14691 2177 ft 6 kts 68°
2026-05-09 04:49 -22.99889 -47.14643 2177 ft 7 kts 125°
2026-05-09 04:49 -22.99983 -47.14509 2177 ft 56 kts 128°
2026-05-09 04:49 -23.00378 -47.13958 2178 ft 127 kts 127°
2026-05-09 04:50 -23.01046 -47.13021 2215 ft 180 kts 125°
2026-05-09 04:50 -23.01847 -47.11913 2778 ft 187 kts 123°
2026-05-09 04:50 -23.02607 -47.10799 3507 ft 187 kts 114°
2026-05-09 04:50 -23.02878 -47.09515 4133 ft 172 kts 68°
2026-05-09 04:51 -23.02344 -47.08362 4549 ft 175 kts 47°
2026-05-09 04:51 -23.01611 -47.07237 4951 ft 192 kts 48°
2026-05-09 04:51 -23.00845 -47.05963 5362 ft 210 kts 51°
2026-05-09 04:51 -23.00067 -47.04536 5694 ft 235 kts 53°
2026-05-09 04:52 -22.99248 -47.02928 6132 ft 255 kts 55°
2026-05-09 04:52 -22.98389 -47.01162 6621 ft 273 kts 56°
2026-05-09 04:52 -22.97506 -46.99313 7268 ft 282 kts 57°
2026-05-09 04:52 -22.96599 -46.97396 7754 ft 284 kts 57°
2026-05-09 04:53 -22.95700 -46.95489 7980 ft 285 kts 57°
2026-05-09 04:53 -22.94753 -46.93615 7991 ft 282 kts 50°
2026-05-09 04:53 -22.93473 -46.92018 8027 ft 278 kts 36°
2026-05-09 04:53 -22.91939 -46.90708 8552 ft 284 kts 32°
2026-05-09 04:54 -22.90364 -46.89435 9509 ft 282 kts 31°
2026-05-09 04:54 -22.88789 -46.88166 10327 ft 286 kts 31°
2026-05-09 04:54 -22.87176 -46.86866 10864 ft 299 kts 32°
2026-05-09 04:54 -22.85441 -46.85465 11254 ft 317 kts 32°
2026-05-09 04:55 -22.83632 -46.83997 11593 ft 335 kts 32°
2026-05-09 04:55 -22.81723 -46.82444 11892 ft 352 kts 33°
2026-05-09 04:55 -22.79705 -46.80801 12166 ft 369 kts 33°
2026-05-09 04:55 -22.77597 -46.79082 12498 ft 382 kts 33°
2026-05-09 04:56 -22.75473 -46.77349 13035 ft 387 kts 33°
2026-05-09 04:56 -22.73322 -46.75596 13599 ft 390 kts 33°
2026-05-09 04:56 -22.71137 -46.73816 14143 ft 394 kts 33°
2026-05-09 04:56 -22.69055 -46.71847 14678 ft 401 kts 42°
2026-05-09 04:57 -22.67242 -46.69506 15223 ft 408 kts 51°
2026-05-09 04:57 -22.65742 -46.66871 15742 ft 413 kts 57°
2026-05-09 04:57 -22.64409 -46.64130 16227 ft 419 kts 62°
2026-05-09 04:57 -22.63545 -46.61087 16682 ft 428 kts 76°
2026-05-09 04:58 -22.63356 -46.57836 17145 ft 437 kts 90°
2026-05-09 04:58 -22.63697 -46.54572 17601 ft 441 kts 95°
2026-05-09 04:58 -22.64140 -46.51283 18036 ft 445 kts 96°
2026-05-09 04:58 -22.64592 -46.47943 18471 ft 448 kts 95°
2026-05-09 04:59 -22.65019 -46.44622 18885 ft 451 kts 95°
2026-05-09 04:59 -22.65436 -46.41225 19301 ft 455 kts 95°
2026-05-09 04:59 -22.65857 -46.37858 19694 ft 458 kts 95°
2026-05-09 04:59 -22.66306 -46.34394 20110 ft 462 kts 95°
2026-05-09 05:00 -22.66759 -46.30921 20519 ft 465 kts 95°
2026-05-09 05:00 -22.67133 -46.27436 20919 ft 465 kts 88°
2026-05-09 05:00 -22.66726 -46.24031 21288 ft 459 kts 69°
2026-05-09 05:00 -22.65380 -46.20939 21715 ft 451 kts 51°
2026-05-09 05:01 -22.63295 -46.18452 22095 ft 443 kts 34°
2026-05-09 05:01 -22.60684 -46.16742 22452 ft 437 kts 18°
2026-05-09 05:01 -22.57781 -46.15906 22862 ft 430 kts
2026-05-09 05:01 -22.54814 -46.15959 23257 ft 425 kts 348°
2026-05-09 05:02 -22.52005 -46.16868 23630 ft 423 kts 333°
2026-05-09 05:02 -22.49536 -46.18552 23980 ft 423 kts 319°
2026-05-09 05:02 -22.47550 -46.20913 24170 ft 424 kts 304°
2026-05-09 05:02 -22.46243 -46.23753 24174 ft 426 kts 289°
2026-05-09 05:03 -22.45702 -46.26900 24181 ft 431 kts 275°
2026-05-09 05:03 -22.45981 -46.30132 24176 ft 438 kts 260°
2026-05-09 05:03 -22.47100 -46.33210 24170 ft 447 kts 244°
2026-05-09 05:03 -22.48961 -46.35976 24172 ft 452 kts 236°
2026-05-09 05:04 -22.50705 -46.38753 24149 ft 445 kts 246°
2026-05-09 05:04 -22.51755 -46.41831 24140 ft 435 kts 262°
2026-05-09 05:04 -22.51947 -46.45058 24137 ft 428 kts 277°
2026-05-09 05:04 -22.51295 -46.48148 24125 ft 424 kts 292°
2026-05-09 05:05 -22.49928 -46.50982 24126 ft 422 kts 301°
2026-05-09 05:05 -22.48442 -46.53696 24115 ft 422 kts 301°
2026-05-09 05:05 -22.46931 -46.56432 24109 ft 422 kts 301°
2026-05-09 05:05 -22.45532 -46.59209 24094 ft 423 kts 293°
2026-05-09 05:06 -22.44816 -46.62294 24097 ft 427 kts 278°
2026-05-09 05:06 -22.44893 -46.65483 24100 ft 433 kts 264°
2026-05-09 05:06 -22.45787 -46.68641 24106 ft 443 kts 249°
2026-05-09 05:06 -22.47462 -46.71449 24102 ft 453 kts 234°
2026-05-09 05:07 -22.49731 -46.73863 24111 ft 457 kts 228°
2026-05-09 05:07 -22.52056 -46.76191 24102 ft 457 kts 228°
2026-05-09 05:07 -22.54381 -46.78516 24100 ft 456 kts 228°
2026-05-09 05:07 -22.56715 -46.80861 24096 ft 457 kts 228°
2026-05-09 05:08 -22.59068 -46.83229 24092 ft 457 kts 228°
2026-05-09 05:08 -22.61386 -46.85569 24085 ft 457 kts 228°
2026-05-09 05:08 -22.63706 -46.87913 24080 ft 457 kts 228°
2026-05-09 05:08 -22.66036 -46.90267 24075 ft 457 kts 229°
2026-05-09 05:09 -22.68357 -46.92616 24065 ft 458 kts 229°
2026-05-09 05:09 -22.70685 -46.94975 24055 ft 458 kts 228°
2026-05-09 05:09 -22.73016 -46.97338 24048 ft 456 kts 228°
2026-05-09 05:09 -22.75305 -46.99657 23984 ft 457 kts 229°
2026-05-09 05:10 -22.77625 -47.02010 23289 ft 457 kts 229°
2026-05-09 05:10 -22.79947 -47.04364 22509 ft 453 kts 229°
2026-05-09 05:10 -22.82256 -47.06708 21819 ft 448 kts 229°
2026-05-09 05:10 -22.84509 -47.08988 21167 ft 442 kts 228°
2026-05-09 05:11 -22.86734 -47.11240 20536 ft 437 kts 228°
2026-05-09 05:11 -22.88944 -47.13477 19915 ft 434 kts 228°
2026-05-09 05:11 -22.91258 -47.15550 19280 ft 437 kts 216°
2026-05-09 05:11 -22.94127 -47.16766 18654 ft 445 kts 194°
2026-05-09 05:12 -22.97271 -47.16851 18034 ft 450 kts 174°
2026-05-09 05:12 -23.00315 -47.16197 17439 ft 448 kts 169°
2026-05-09 05:12 -23.03376 -47.15456 16876 ft 445 kts 169°
2026-05-09 05:12 -23.06365 -47.14758 16817 ft 445 kts 169°
2026-05-09 05:13 -23.09439 -47.14060 16837 ft 446 kts 170°
2026-05-09 05:13 -23.12450 -47.13388 16857 ft 447 kts 170°
2026-05-09 05:13 -23.15519 -47.12709 16872 ft 447 kts 170°
2026-05-09 05:13 -23.18579 -47.12033 16717 ft 448 kts 170°
2026-05-09 05:14 -23.21640 -47.11358 16064 ft 446 kts 171°
2026-05-09 05:14 -23.24666 -47.10690 15411 ft 443 kts 170°
2026-05-09 05:14 -23.27660 -47.10034 14790 ft 439 kts 171°
2026-05-09 05:14 -23.30632 -47.09383 14159 ft 436 kts 171°
2026-05-09 05:15 -23.33621 -47.08728 13516 ft 432 kts 171°
2026-05-09 05:15 -23.36542 -47.08088 12905 ft 428 kts 171°
2026-05-09 05:15 -23.39468 -47.07442 12274 ft 424 kts 169°
2026-05-09 05:15 -23.42201 -47.06330 11718 ft 421 kts 148°
2026-05-09 05:16 -23.44305 -47.04208 11373 ft 409 kts 125°
2026-05-09 05:16 -23.45794 -47.01639 11101 ft 395 kts 119°
2026-05-09 05:16 -23.47165 -46.99120 10846 ft 384 kts 119°
2026-05-09 05:16 -23.48532 -46.96651 10608 ft 371 kts 120°
2026-05-09 05:17 -23.49862 -46.94300 10434 ft 358 kts 120°
2026-05-09 05:17 -23.51165 -46.92037 10265 ft 346 kts 120°
2026-05-09 05:17 -23.52424 -46.89869 10105 ft 335 kts 120°
2026-05-09 05:17 -23.53659 -46.87746 9827 ft 328 kts 121°
2026-05-09 05:18 -23.54875 -46.85658 9452 ft 326 kts 120°
2026-05-09 05:18 -23.56130 -46.83596 9091 ft 323 kts 128°
2026-05-09 05:18 -23.57706 -46.81929 8989 ft 311 kts 144°
2026-05-09 05:18 -23.59474 -46.80637 8984 ft 300 kts 149°
2026-05-09 05:19 -23.61213 -46.79475 8977 ft 284 kts 149°
2026-05-09 05:19 -23.62866 -46.78376 8966 ft 269 kts 149°
2026-05-09 05:19 -23.64409 -46.77330 8964 ft 254 kts 149°
2026-05-09 05:19 -23.65818 -46.76366 9083 ft 229 kts 148°
2026-05-09 05:20 -23.67146 -46.75456 8881 ft 220 kts 149°
2026-05-09 05:20 -23.68423 -46.74580 8597 ft 216 kts 148°
2026-05-09 05:20 -23.69692 -46.73708 8309 ft 212 kts 148°
2026-05-09 05:20 -23.70933 -46.72850 8028 ft 208 kts 148°
2026-05-09 05:21 -23.72127 -46.72023 7716 ft 204 kts 148°
2026-05-09 05:21 -23.73319 -46.71189 7401 ft 200 kts 144°
2026-05-09 05:21 -23.74328 -46.70187 7110 ft 193 kts 127°
2026-05-09 05:21 -23.75026 -46.68990 6827 ft 183 kts 108°
2026-05-09 05:22 -23.75394 -46.67709 6527 ft 172 kts 90°
2026-05-09 05:22 -23.75455 -46.66441 6216 ft 162 kts 75°
2026-05-09 05:22 -23.75263 -46.65282 5906 ft 153 kts 61°
2026-05-09 05:22 -23.74870 -46.64247 5533 ft 144 kts 50°
2026-05-09 05:23 -23.74324 -46.63368 5143 ft 138 kts 40°
2026-05-09 05:23 -23.73659 -46.62638 4882 ft 134 kts 31°
2026-05-09 05:23 -23.72891 -46.62058 4679 ft 134 kts 22°
2026-05-09 05:23 -23.72032 -46.61634 4487 ft 135 kts 13°
2026-05-09 05:24 -23.71113 -46.61388 4306 ft 136 kts
2026-05-09 05:24 -23.70170 -46.61332 4115 ft 136 kts 355°
2026-05-09 05:24 -23.69218 -46.61475 3926 ft 137 kts 345°
2026-05-09 05:24 -23.68321 -46.61805 3742 ft 137 kts 335°
2026-05-09 05:25 -23.67481 -46.62309 3554 ft 137 kts 329°
2026-05-09 05:25 -23.66675 -46.62857 3374 ft 136 kts 328°
2026-05-09 05:25 -23.65100 -46.63985 3040 ft 135 kts 332°
2026-05-09 05:26 -23.64303 -46.64518 2849 ft 134 kts 329°
2026-05-09 05:26 -23.63510 -46.65072 2669 ft 133 kts 330°
2026-05-09 05:26 -23.62756 -46.65585 2617 ft 105 kts 327°
2026-05-09 05:26 -23.62391 -46.65837 2598 ft 26 kts 327°
2026-05-09 05:27 -23.62237 -46.65944 2588 ft 16 kts 328°
2026-05-09 05:27 -23.62206 -46.66025 2585 ft 12 kts 237°
2026-05-09 05:27 -23.62273 -46.66045 2588 ft 8 kts 173°
2026-05-09 05:27 -23.62322 -46.66034 2591 ft 5 kts 160°
2026-05-09 05:28 -23.62346 -46.66021 2592 ft 2 kts 151°
2026-05-09 05:28 -23.62361 -46.66017 2593 ft 3 kts 184°
2026-05-09 05:28 -23.62379 -46.66031 2593 ft 2 kts 226°
2026-05-09 05:28 -23.62389 -46.66043 2593 ft 0 kts 227°
2026-05-09 05:29 -23.62390 -46.66043 2593 ft 0 kts 228°